User: anonymous   Login
Location: Hiram
(41.3130°N, 81.1440°W)
Time: 17:12:07
(UTC-05:00)
Language:

Iridium 62 - Orbit

View from above orbital plane
View from above orbital plane
View from above satellite
View from above satellite

Ground track
Ground track

The orbit data is extracted from the following two-line orbital elements,

1 25285U 98021A   16337.53616341  .00000010  00000-0 -34734-5 0  9999
2 25285  86.3941 306.1119 0002053  85.1837 274.9593 14.34216067976834
Epoch (UTC): 02 December 2016 12:52:04
Eccentricity: 0.0002053
inclination: 86.3941°
perigee height: 776 km
apogee height: 779 km
right ascension of ascending node: 306.1119°
argument of perigee: 85.1837°
revolutions per day: 14.34216067
mean anomaly at epoch: 274.9593°
orbit number at epoch: 97683

The dashed part of the orbit path shows where the satellite is in the earth's shadow,  

DLR